Location: Oberkirch
(48.5323°N, 8.0787°E)
Time: 09:20:40
(UTC+00:00)

Explorer 7 - All Passes

Search period start: 19 February 2026 00:00
Search period end: 01 March 2026 00:00
Orbit: 431 x 545 km, 50.2° (Epoch: 19 February)

Date Brightness Start Highest point End Pass type
(mag) Time Alt. Az. Time Alt. Az. Time Alt. Az.
19 Feb - 12:52:17 10° SE 12:52:53 10° SE 12:53:30 10° SE daylight
19 Feb - 14:27:10 10° SW 14:30:34 47° SSE 14:34:06 10° ENE daylight
19 Feb - 16:05:20 10° W 16:08:56 70° N 16:12:42 10° ENE daylight
19 Feb - 17:43:51 10° WNW 17:47:33 78° NNE 17:51:26 10° E visible
19 Feb - 19:22:19 10° W 19:25:53 39° SSW 19:29:34 10° SE visible
20 Feb - 14:01:30 10° SW 14:04:52 45° SSE 14:08:22 10° ENE daylight
20 Feb - 15:39:38 10° W 15:43:12 71° N 15:46:57 10° ENE daylight
20 Feb - 17:18:09 10° WNW 17:21:50 76° N 17:25:40 10° E daylight
20 Feb - 18:56:36 10° W 19:00:10 40° SSW 19:03:51 10° SE visible
21 Feb - 13:35:48 10° SW 13:39:09 44° SSE 13:42:36 10° ENE daylight
21 Feb - 15:13:55 10° W 15:17:28 72° N 15:21:11 10° ENE daylight
21 Feb - 16:52:26 10° WNW 16:56:05 75° N 16:59:54 10° E daylight
21 Feb - 18:30:53 10° W 18:34:25 41° SSW 18:38:05 10° SE visible
22 Feb - 13:10:05 10° SW 13:13:24 42° SSE 13:16:49 10° E daylight
22 Feb - 14:48:10 10° W 14:51:43 72° N 14:55:23 10° ENE daylight
22 Feb - 16:26:41 10° WNW 16:30:18 74° N 16:34:05 10° E daylight
22 Feb - 18:05:07 10° W 18:08:39 42° SSW 18:12:19 10° SE visible
23 Feb - 12:44:21 10° SW 12:47:37 40° SSE 12:51:00 10° E daylight
23 Feb - 14:22:24 10° W 14:25:55 73° N 14:29:34 10° ENE daylight
23 Feb - 16:00:55 10° WNW 16:04:31 73° N 16:08:15 10° E daylight
23 Feb - 17:39:20 10° W 17:42:52 44° SSW 17:46:31 10° SE visible
23 Feb - 19:20:01 10° SW 19:20:37 10° SW 19:21:14 10° SW visible
24 Feb - 12:18:35 10° SW 12:21:49 39° SSE 12:25:09 10° E daylight
24 Feb - 13:56:36 10° W 14:00:06 74° N 14:03:44 10° ENE daylight
24 Feb - 15:35:06 10° WNW 15:38:41 72° N 15:42:24 10° E daylight
24 Feb - 17:13:31 10° WNW 17:17:02 45° SSW 17:20:41 10° SE daylight
24 Feb - 18:53:55 10° WSW 18:54:48 11° SW 18:55:42 10° SSW visible
25 Feb - 11:52:47 10° SW 11:56:00 37° SSE 11:59:18 10° E daylight
25 Feb - 13:30:46 10° W 13:34:15 75° N 13:37:52 10° ENE daylight
25 Feb - 15:09:17 10° WNW 15:12:50 71° N 15:16:32 10° E daylight
25 Feb - 16:47:41 10° WNW 16:51:12 46° SSW 16:54:49 10° SE daylight
25 Feb - 18:27:53 10° WSW 18:28:58 11° SW 18:30:06 10° SSW visible
26 Feb - 11:26:58 10° SW 11:30:09 36° SSE 11:33:24 10° E daylight
26 Feb - 13:04:55 10° W 13:08:23 76° NNW 13:11:59 10° ENE daylight
26 Feb - 14:43:25 10° WNW 14:46:58 70° N 14:50:37 10° E daylight
26 Feb - 16:21:50 10° WNW 16:25:20 48° SSW 16:28:57 10° SE daylight
26 Feb - 18:01:51 10° WSW 18:03:07 11° SW 18:04:25 10° SSW visible
27 Feb - 11:01:07 10° SW 11:04:17 34° SSE 11:07:29 10° E daylight
27 Feb - 12:39:02 10° W 12:42:30 78° NNW 12:46:04 10° ENE daylight
27 Feb - 14:17:33 10° WNW 14:21:04 69° N 14:24:42 10° E daylight
27 Feb - 15:55:57 10° WNW 15:59:26 49° SSW 16:03:03 10° SE daylight
27 Feb - 17:35:48 10° WSW 17:37:14 12° SW 17:38:41 10° SSW visible
28 Feb - 10:35:16 10° SSW 10:38:23 33° SSE 10:41:33 10° E daylight
28 Feb - 12:13:07 10° W 12:16:34 79° NNW 12:20:08 10° ENE daylight
28 Feb - 13:51:38 10° WNW 13:55:08 68° N 13:58:45 10° E daylight
28 Feb - 15:30:03 10° WNW 15:33:31 51° SSW 15:37:06 10° SE daylight
28 Feb - 17:09:47 10° WSW 17:11:20 12° SW 17:12:55 10° SSW daylight
